Theta_e
294 288 286 286 287 287 287 287 288 287 288 287 287 285 285 284 285 287 289 294 308 304 304 304 304 306 311 312 310 312 314 315 321 321 320 322 322 322 322 322 322 323 324 328 330 331 331 332 333 333 333 333 333 333 333 332 333 333 333 334 334 335 334 331 330 329 329 328 329 328 327 328 329 330 331 331 331 331 331 331 331 331 331 329 328 331
294 286 286 287 287 287 287 287 288 287 288 288 286 286 285 285 285 288 290 292 296 302 303 306 307 307 308 309 311 312 310 310 313 314 320 321 322 322 321 320 321 322 325 325 325 326 327 327 327 328 328 329 327 329 331 331 332 332 332 331 330 330 331 332 332 331 330 328 327 325 327 327 328 330 331 330 331 332 332 331 332 331 331 330 329 330
288 286 287 288 288 288 287 288 289 288 287 288 286 284 284 283 286 288 290 297 307 308 305 309 307 308 309 310 311 310 308 311 314 319 320 320 319 319 319 319 320 321 320 322 323 324 324 324 324 324 324 325 325 326 327 328 328 328 328 328 328 327 327 328 331 330 329 328 329 328 328 328 329 332 332 331 331 332 331 330 330 331 331 331 329 329
284 287 288 290 288 288 287 288 288 288 289 285 284 283 282 284 286 284 294 302 307 306 306 309 307 307 309 309 311 312 311 312 315 319 321 321 319 318 318 319 319 319 319 319 320 321 322 322 322 322 322 322 323 323 324 325 325 325 326 326 326 326 327 327 329 330 329 331 331 331 331 331 331 331 336 333 333 332 331 332 332 332 331 332 332 332
285 288 291 290 289 289 287 287 287 286 284 287 286 284 284 286 286 286 295 305 309 310 311 309 306 305 308 304 307 312 315 314 316 316 318 320 319 319 319 319 319 318 318 318 319 319 319 319 319 320 321 321 321 321 322 323 323 324 324 324 325 326 326 326 327 327 328 330 329 330 330 330 327 329 330 330 330 330 331 332 331 332 333 332 331 331
287 290 292 290 289 288 288 286 287 287 283 284 286 288 286 286 288 299 302 302 299 301 306 304 294 296 304 305 307 309 310 311 314 313 313 316 317 317 316 316 318 318 319 318 317 318 318 318 318 319 319 319 319 320 321 322 323 323 324 324 324 324 324 324 325 326 327 327 327 327 326 324 324 324 326 326 326 327 328 328 329 330 332 332 330 330
287 292 292 291 288 288 288 287 287 288 284 283 285 289 288 288 288 297 298 299 293 293 302 305 292 289 301 302 306 307 307 308 310 311 312 314 315 315 315 315 315 316 316 317 317 317 317 317 317 317 317 318 318 319 321 322 322 322 322 323 323 323 323 325 325 325 326 324 324 325 324 324 324 323 325 328 328 328 329 329 329 329 330 331 330 330
291 291 290 290 289 287 286 286 288 289 285 282 285 289 289 288 287 289 297 296 293 298 302 299 297 296 294 301 307 307 307 307 308 310 312 314 314 314 314 315 315 315 315 315 315 316 316 316 316 315 317 317 318 319 320 321 321 320 321 321 321 322 323 324 324 324 325 322 322 323 323 324 323 323 324 325 326 326 327 326 328 329 328 330 331 329
292 289 289 288 289 287 287 289 288 290 286 284 288 291 289 289 289 288 294 291 291 296 292 295 301 294 294 301 307 307 303 304 305 307 310 312 313 313 313 314 314 314 315 315 314 314 315 315 316 316 316 317 318 318 318 319 320 321 321 321 321 321 321 322 323 322 323 324 322 322 322 321 322 324 323 323 323 323 324 323 325 326 327 327 328 328
292 292 291 291 289 288 289 289 289 290 287 288 290 291 290 290 289 289 286 288 290 292 287 293 297 288 288 299 301 305 303 303 304 308 310 311 312 312 312 313 313 313 314 314 314 314 315 315 316 316 316 315 316 317 318 318 318 318 319 319 319 318 319 320 321 321 320 321 321 320 320 319 319 321 320 320 319 320 321 320 321 322 322 323 324 325
291 298 297 293 290 291 290 291 290 291 290 289 291 290 289 288 288 288 284 286 288 283 288 294 296 289 285 296 300 300 301 305 307 308 310 311 311 312 312 312 311 311 312 312 312 313 314 315 314 315 314 314 315 316 316 316 316 316 316 317 316 316 316 317 318 319 318 318 318 317 317 317 316 317 317 316 316 317 318 317 318 319 320 321 321 322
290 292 292 293 297 294 294 292 292 291 291 290 287 287 286 285 284 284 282 287 281 279 286 293 295 290 284 288 300 304 306 308 307 307 307 308 309 310 310 311 311 311 311 311 311 311 313 313 313 314 313 313 313 314 314 314 314 314 314 315 314 314 313 313 314 315 316 316 316 315 314 314 314 314 314 313 313 315 315 315 314 315 317 317 318 319
287 288 293 293 299 294 291 290 289 290 289 288 286 286 282 277 279 275 280 276 277 279 282 291 294 290 287 288 300 305 306 309 310 310 309 309 309 309 310 311 310 310 310 310 310 310 311 310 311 312 313 313 313 312 313 313 313 313 313 314 312 311 311 311 311 311 312 312 312 313 313 313 314 312 312 312 312 313 313 312 311 311 311 313 313 314
284 288 289 291 292 296 293 288 283 283 286 286 285 282 280 276 275 271 273 274 276 280 286 290 295 289 291 296 299 304 306 310 310 311 311 310 309 309 309 309 309 309 309 309 309 310 309 310 310 311 312 312 312 312 312 312 312 312 312 312 311 310 310 310 310 310 310 310 310 311 311 312 312 310 310 309 309 310 311 311 309 309 309 309 309 311
277 279 287 289 286 293 293 292 290 283 284 286 286 286 281 279 276 271 274 274 276 277 281 290 289 283 289 290 302 303 307 310 311 311 310 310 309 309 309 309 308 308 308 309 309 309 309 310 310 310 311 311 311 311 311 311 311 311 311 310 309 309 309 309 309 309 308 309 309 309 310 310 311 310 308 308 309 308 308 308 307 307 307 307 307 308
283 282 285 292 290 293 291 293 292 287 286 285 287 289 281 284 281 280 277 279 278 280 280 285 287 293 294 303 305 307 308 309 309 309 309 308 307 306 306 306 306 307 307 308 308 308 309 309 309 310 310 309 309 309 310 310 310 310 310 310 309 308 308 308 309 308 308 307 308 308 307 308 309 310 308 307 307 307 307 306 306 305 305 306 305 306
282 281 288 292 293 291 293 293 291 292 281 285 287 284 287 289 286 278 278 281 277 281 281 286 291 296 302 303 304 306 306 305 306 306 306 305 305 305 304 305 305 306 306 307 307 307 308 308 309 309 309 308 309 309 309 309 309 310 310 310 308 308 307 307 307 307 307 307 307 306 307 306 306 306 305 305 305 305 306 306 305 305 305 305 305 305
281 278 287 288 289 293 293 295 293 294 290 286 283 286 290 292 291 286 278 276 272 276 282 289 288 290 292 287 303 303 302 302 303 304 304 303 304 303 303 304 304 305 306 307 307 306 308 308 309 308 308 308 308 308 308 308 309 309 309 309 308 307 306 306 306 306 306 306 306 306 306 306 306 306 305 305 304 305 305 304 304 304 303 303 304 305
286 280 285 290 290 293 294 292 290 293 293 291 287 292 289 280 282 283 280 275 274 277 283 287 292 291 290 289 298 299 300 300 301 302 301 301 302 302 302 303 304 304 304 304 305 307 307 308 307 307 307 308 308 308 308 308 309 309 308 308 307 306 306 306 306 305 306 306 306 306 305 305 305 305 305 305 305 304 304 303 303 302 302 302 303 303
288 280 280 287 291 291 292 290 283 287 290 291 292 291 291 290 283 281 280 280 281 279 282 284 290 285 293 294 300 300 301 301 300 300 300 301 302 302 302 303 303 304 304 305 306 307 307 306 307 307 306 306 306 306 307 307 308 307 308 307 306 305 305 305 304 305 304 305 304 304 304 304 305 305 304 304 303 303 303 303 302 302 302 302 303 301
282 284 276 283 289 291 286 288 286 286 286 285 287 284 288 288 288 287 285 282 281 279 279 282 282 287 293 300 301 302 302 301 301 300 300 301 302 302 303 303 303 304 305 305 306 306 306 306 306 306 305 305 305 306 306 306 306 306 306 305 304 303 303 303 303 304 303 304 303 304 303 303 303 303 303 302 303 303 302 302 303 302 302 302 301 300
282 282 279 280 285 286 286 287 289 290 291 288 286 284 285 284 284 282 280 284 285 283 281 282 281 285 290 299 303 303 304 302 302 301 300 301 301 302 302 303 304 303 304 305 305 305 305 305 304 304 304 304 304 304 304 305 305 304 303 303 303 303 303 303 303 303 303 303 302 302 302 302 302 302 302 302 301 302 302 302 301 302 301 300 301 301
285 283 283 281 281 284 288 291 292 294 293 291 292 288 286 285 285 281 277 279 283 284 287 283 280 280 292 296 302 304 303 303 302 301 300 301 301 302 303 304 304 304 304 304 304 304 304 304 304 304 303 302 302 302 302 302 302 302 302 302 302 302 302 302 302 303 302 302 301 301 301 301 301 301 300 300 300 300 301 301 301 302 300 300 300 301
301 284 283 280 284 286 290 290 292 294 293 290 290 287 287 286 285 283 277 281 282 282 281 279 278 281 293 299 302 303 303 302 302 301 300 300 301 302 302 303 303 303 303 303 303 303 303 303 303 302 301 301 301 301 301 301 302 302 302 302 302 302 302 302 302 302 302 301 301 301 301 301 301 300 300 299 299 299 300 300 301 303 300 300 300 299
282 281 282 278 278 284 284 287 289 291 291 286 285 286 287 286 286 285 284 283 282 284 283 281 275 282 295 301 302 302 301 300 300 301 301 300 301 301 302 302 301 301 302 302 302 302 302 302 301 301 301 300 300 300 300 301 301 301 301 301 302 301 302 302 302 301 301 300 300 300 300 300 300 299 299 299 299 299 299 299 299 301 301 300 300 299
285 280 282 277 274 273 275 278 279 280 284 285 286 286 287 288 286 285 282 282 280 281 283 281 280 287 299 301 300 300 300 299 300 300 301 301 301 301 301 300 300 301 301 301 301 301 300 300 300 300 300 300 300 300 300 300 300 301 301 301 301 301 301 301 301 300 300 299 299 299 299 299 299 299 299 299 298 298 298 299 299 299 300 300 299 299
283 285 285 284 281 277 280 280 282 284 284 283 286 286 287 288 287 285 281 279 281 278 282 283 288 290 294 297 297 299 299 298 298 299 299 300 301 301 300 300 300 300 300 300 300 300 300 300 299 299 299 299 300 300 300 300 300 300 300 300 301 301 301 300 300 299 299 298 298 298 298 298 298 298 298 298 298 299 298 298 298 298 298 299 298 297
286 284 286 287 287 287 285 286 288 288 287 285 286 286 286 287 287 285 281 281 282 284 279 289 294 292 293 296 297 298 298 298 298 299 299 299 299 299 299 299 300 299 300 300 299 299 299 299 300 300 300 300 300 299 300 300 300 300 300 300 300 300 300 301 299 298 298 298 298 297 297 297 297 298 299 299 298 298 298 298 297 297 298 299 297 296
286 282 287 291 291 293 293 292 291 290 286 285 286 286 286 286 287 286 285 283 286 283 283 291 294 293 294 297 298 298 299 298 298 299 299 300 300 299 299 298 298 298 298 298 298 299 299 299 299 299 300 300 299 299 299 299 300 300 300 300 299 299 299 299 298 298 298 297 297 296 296 297 297 297 297 298 298 298 297 297 296 297 297 297 297 298
289 284 290 291 290 292 292 292 291 291 289 290 289 288 287 286 286 287 286 285 287 284 287 292 293 293 297 298 299 299 300 299 299 300 300 299 298 298 298 297 297 297 297 298 298 298 299 299 299 299 299 299 299 299 298 299 299 299 299 299 299 299 299 298 297 297 296 296 296 296 296 296 296 296 296 296 296 296 297 296 296 296 296 296 296 295
290 284 294 292 287 289 291 293 292 291 289 287 288 289 288 287 287 287 287 288 291 291 292 293 292 291 296 300 299 300 300 300 299 298 298 298 298 298 297 296 296 297 297 297 298 298 299 299 299 299 298 298 298 297 297 297 298 298 298 298 298 297 297 297 296 296 295 295 295 295 295 296 295 295 295 295 295 295 296 296 295 295 295 295 295 295
293 287 291 288 284 282 290 289 290 290 290 288 285 287 287 285 286 287 286 288 290 290 292 292 289 289 295 299 298 298 298 298 297 297 297 298 298 297 296 295 296 296 297 297 298 298 298 298 298 298 297 297 296 296 296 297 297 297 297 297 296 296 296 296 295 295 295 295 295 295 295 295 294 294 294 294 294 294 294 295 294 294 294 294 294 294
290 290 287 286 285 281 289 289 288 286 287 285 283 283 286 286 286 287 287 291 294 296 291 288 291 296 297 298 296 296 297 297 297 297 297 298 298 298 296 296 296 297 297 297 298 298 298 298 298 298 297 296 296 296 296 297 297 297 297 296 296 296 295 295 294 294 294 294 294 293 293 293 293 293 293 293 293 293 293 293 293 293 293 293 294 293
292 293 286 286 285 285 288 285 288 284 278 278 288 290 289 287 287 287 288 290 294 292 291 293 295 297 297 297 296 295 296 296 297 299 300 299 298 297 296 296 296 297 297 298 298 298 298 297 297 297 297 296 296 296 296 298 297 296 297 297 296 295 294 294 293 293 293 293 293 293 292 292 292 292 291 292 292 292 292 292 291 291 291 293 292 292
289 289 285 285 287 286 283 285 282 279 278 286 289 290 291 289 290 289 289 288 287 289 292 293 295 296 297 298 297 298 298 299 300 299 300 301 299 297 295 295 295 296 296 297 297 297 296 296 296 295 295 295 296 296 296 296 296 296 296 296 295 294 294 292 292 291 292 292 292 292 292 292 292 291 290 290 290 290 290 290 289 291 291 291 291 291
287 287 284 283 280 282 282 280 279 278 288 290 291 290 292 293 292 293 290 288 287 288 293 293 296 297 298 297 298 299 298 299 300 300 300 300 299 297 295 295 295 295 295 296 296 295 295 295 295 295 294 296 295 295 295 295 295 295 294 294 294 293 292 292 292 291 290 291 291 291 291 292 290 290 289 290 290 289 289 288 288 288 290 291 289 290
293 288 286 284 282 281 280 283 284 287 287 286 286 288 289 287 289 287 285 286 288 289 293 295 296 297 297 297 298 298 298 297 295 294 297 298 298 298 297 296 296 296 296 295 295 294 294 294 294 294 295 293 294 294 293 294 294 294 293 293 292 292 291 291 291 291 292 291 291 292 291 291 290 290 289 289 289 288 288 289 289 289 291 289 288 288
290 290 287 286 281 282 283 281 283 279 278 284 287 290 292 291 291 289 288 284 290 293 295 297 296 296 296 296 296 296 297 294 290 291 295 297 297 297 297 298 297 296 295 294 293 293 293 294 294 294 294 293 293 293 293 293 294 293 293 292 291 291 290 291 291 291 291 291 291 291 290 290 290 289 289 288 288 288 288 288 288 289 289 287 287 288
291 290 287 286 283 282 280 280 278 277 278 285 291 292 294 293 292 290 287 284 286 294 297 298 296 296 296 295 295 296 294 290 289 291 294 296 297 297 296 297 297 296 294 294 294 293 292 293 293 294 293 293 292 291 292 293 293 293 293 292 291 291 290 290 290 291 292 292 290 290 290 289 290 289 288 289 288 289 288 288 288 288 288 288 287 288
288 283 283 284 279 277 278 277 276 277 282 287 290 292 293 294 293 288 280 281 289 294 297 297 296 296 295 295 296 295 294 290 289 291 295 296 297 297 297 296 295 294 293 294 294 293 293 294 294 292 292 292 291 291 292 293 293 293 292 291 289 290 290 290 291 290 290 290 291 290 291 291 291 290 289 289 288 289 289 289 288 288 287 287 288 288
283 283 283 283 280 279 279 274 275 279 285 287 291 294 294 295 292 284 281 281 292 296 298 298 296 296 296 295 296 293 292 293 295 295 296 296 296 296 297 297 295 294 293 293 293 295 293 293 294 293 293 292 292 292 292 292 292 291 291 290 290 290 291 290 289 290 290 290 290 290 290 290 289 290 289 289 289 289 289 287 287 287 287 287 288 287
283 280 283 281 281 280 272 278 278 276 283 289 293 295 295 292 283 284 286 289 296 296 298 298 296 296 296 296 294 289 291 295 296 296 295 295 296 296 296 295 294 293 294 294 294 293 292 292 292 292 291 291 292 292 292 292 291 290 290 289 289 289 289 289 289 289 289 290 290 290 290 289 290 290 292 290 289 288 288 288 288 288 287 287 286 286
285 283 282 281 279 278 274 274 276 277 286 295 294 292 293 285 283 284 289 294 298 298 297 297 296 296 297 293 291 293 294 294 294 294 295 295 295 295 295 294 293 293 293 292 292 293 293 292 292 292 291 291 291 292 292 292 290 290 290 290 289 290 289 288 289 290 290 290 291 292 290 290 291 291 292 291 289 288 287 287 287 287 287 286 286 286
288 284 281 280 281 280 276 277 278 282 285 294 296 289 291 288 289 291 295 294 296 298 297 296 295 296 296 293 293 293 294 294 293 294 294 295 295 295 294 294 293 293 292 293 293 293 294 292 292 291 291 291 291 291 291 292 290 290 290 289 289 289 290 288 288 290 291 290 289 290 291 291 290 289 289 289 288 288 287 287 287 288 288 286 286 285
288 286 286 286 285 282 281 281 283 288 290 290 290 290 290 292 292 295 295 296 296 296 297 296 295 294 294 294 293 293 293 294 294 294 294 294 295 294 293 293 293 293 293 293 293 293 293 292 291 291 291 291 291 290 291 291 291 290 289 289 289 289 289 289 290 290 289 288 289 289 289 289 288 288 288 288 288 288 289 287 287 287 286 286 286 285
292 291 289 287 286 288 290 289 289 289 289 290 291 291 292 292 293 294 296 295 297 297 297 296 294 293 294 295 293 293 293 293 294 294 294 294 294 294 294 294 294 294 294 294 293 293 292 292 291 291 290 289 290 291 291 291 291 291 290 289 290 289 290 290 290 289 288 288 288 289 289 289 288 287 287 288 288 288 287 288 288 287 287 285 285 285
291 291 286 286 288 287 283 287 287 289 289 290 290 291 293 293 293 295 295 296 296 295 295 295 294 294 294 295 294 293 293 294 293 294 294 295 294 294 293 293 293 294 293 293 293 293 292 291 291 291 291 290 289 290 290 290 291 291 290 290 290 290 290 290 290 289 288 287 287 287 287 288 287 287 287 286 286 287 288 287 285 285 287 285 284 286
287 291 288 286 283 282 283 288 289 290 290 291 290 290 291 292 293 293 294 294 294 294 295 294 295 294 295 294 294 294 293 294 294 294 294 294 294 294 293 293 293 293 294 294 293 293 292 291 291 291 291 292 290 291 291 291 291 291 290 290 290 290 290 290 289 288 286 287 287 287 286 287 290 288 285 286 285 286 286 286 286 286 287 286 286 285
289 292 284 286 284 287 288 289 289 289 290 290 290 291 292 293 293 293 294 294 294 293 293 294 295 295 295 294 295 294 294 294 295 295 295 294 294 294 293 293 293 294 293 293 292 292 292 291 292 292 292 291 290 291 291 290 290 290 289 289 289 290 290 288 287 287 286 286 286 287 287 287 286 286 285 285 285 284 284 285 285 283 285 285 283 284
289 284 287 287 285 284 285 287 290 288 286 287 290 290 291 292 293 293 293 293 293 293 293 293 294 295 295 295 295 295 294 295 296 296 295 294 294 294 293 293 293 293 293 293 293 292 292 292 292 291 291 290 289 290 290 289 289 288 289 289 288 290 289 288 287 287 286 286 287 286 286 286 286 286 286 284 285 285 285 286 288 286 286 286 288 287
286 286 288 286 286 286 289 291 289 288 288 288 290 291 291 293 293 293 292 293 293 294 294 294 293 293 294 295 297 296 295 296 296 296 295 295 294 294 294 293 293 293 292 292 291 291 292 291 292 291 290 290 290 291 291 290 289 289 289 289 289 289 288 287 287 286 286 287 286 286 286 285 285 284 284 284 283 285 285 285 284 287 287 287 288 286
Wind_Speed
4 7 9 13 10 7 4 7 7 6 6 3 2 2 2 2 3 3 1 1 7 7 4 2 4 5 7 5 4 3 8 7 10 11 12 13 12 10 9 10 11 11 9 8 9 9 9 8 7 7 9 9 9 7 7 7 7 7 6 6 6 3 4 1 3 1 1 1 1 1 1 3 2 1 1 3 3 3 3 3 3 3 4 3 2 1
6 7 10 5 4 6 6 6 6 4 2 3 2 2 1 1 3 2 1 2 3 6 2 2 8 7 6 7 6 3 7 7 5 2 12 13 10 8 11 12 12 9 9 12 10 11 11 9 10 10 9 10 12 9 11 10 9 9 9 8 6 5 6 7 5 3 1 0 1 2 3 1 1 1 2 3 4 4 4 4 4 3 4 4 4 3
7 10 4 3 5 6 5 6 6 7 4 2 4 2 1 4 2 4 1 1 2 8 2 2 9 7 8 10 5 2 8 3 8 5 10 13 10 8 10 10 9 10 12 11 8 10 10 11 10 10 10 10 9 10 9 8 10 9 9 7 6 6 7 6 6 5 3 3 2 2 2 3 2 2 2 2 3 4 5 5 5 5 4 3 2 1
5 7 6 6 5 7 3 5 5 5 4 5 3 3 5 3 2 1 4 5 7 2 8 6 11 7 9 8 7 4 5 3 5 7 8 9 11 9 10 9 9 14 12 10 9 9 9 10 9 10 9 8 9 9 9 9 9 7 7 6 6 6 7 6 6 5 5 4 4 5 4 4 5 3 4 4 4 6 6 7 6 6 5 5 5 4
4 2 8 6 6 7 6 5 6 6 6 1 5 4 3 2 2 3 0 4 9 10 8 11 7 3 6 8 5 4 3 3 3 8 4 8 9 9 10 8 6 10 11 9 9 9 9 10 10 10 7 7 10 9 9 8 7 6 8 7 6 6 7 6 7 7 5 5 6 5 6 6 4 5 6 7 8 7 6 7 8 8 7 6 6 6
6 4 6 9 6 6 6 6 9 8 6 3 4 8 6 4 4 6 4 5 5 2 6 8 3 2 4 3 6 8 4 5 1 3 4 7 10 11 10 8 9 11 9 10 9 9 9 10 9 9 9 11 9 9 7 6 7 7 7 7 7 6 6 8 7 6 6 6 6 6 6 6 5 7 7 8 7 7 7 6 4 7 7 6 6 5
5 2 8 10 7 6 7 6 4 9 7 4 7 8 7 6 6 7 4 8 2 5 9 5 5 2 3 3 5 8 8 7 3 6 5 2 8 9 8 8 11 9 9 11 10 9 9 8 10 9 9 9 9 7 6 6 6 6 6 6 7 7 7 6 7 7 6 6 6 7 6 5 5 5 5 3 4 5 5 5 7 6 7 7 6 7
5 7 6 6 9 8 7 9 6 10 8 4 2 11 8 7 6 6 6 5 5 2 3 0 1 5 4 7 5 7 8 9 7 8 10 5 7 8 7 9 9 9 9 10 11 10 8 8 9 9 8 8 7 5 6 6 6 7 7 7 7 6 7 6 7 7 6 6 5 6 5 5 6 6 4 5 5 4 4 6 7 6 6 7 7 7
10 6 8 8 7 7 11 6 5 10 8 3 3 10 9 9 8 6 7 4 3 7 6 6 1 2 4 6 9 11 8 7 5 6 8 8 8 9 8 9 9 10 8 8 10 9 7 9 8 7 8 7 8 7 7 6 6 6 5 6 7 8 8 7 7 7 6 5 5 5 4 6 5 4 4 3 4 5 5 6 6 6 6 6 6 6
2 9 9 8 7 11 4 4 9 11 6 2 5 5 5 5 4 8 7 6 2 5 8 10 5 3 0 2 7 4 5 8 8 10 10 9 11 10 8 9 11 10 9 7 11 10 7 8 8 7 7 8 7 6 6 7 6 6 6 8 10 10 7 6 7 6 7 6 6 7 7 7 6 5 4 5 6 6 6 6 7 6 6 6 6 7
3 5 8 7 10 4 4 4 6 9 5 4 3 1 1 1 1 1 4 4 4 5 11 10 7 4 2 6 7 11 9 13 10 10 10 10 11 10 9 9 10 9 8 7 10 9 7 6 7 7 8 8 7 6 6 7 7 6 8 9 11 9 7 7 7 7 7 7 7 7 7 8 7 6 6 7 7 7 7 7 7 7 6 6 6 8
4 2 5 3 7 4 6 5 4 6 6 5 2 4 0 3 2 1 1 2 5 7 5 7 11 2 7 2 6 3 2 10 13 14 14 11 10 9 8 8 9 10 8 7 9 9 7 7 8 7 8 7 7 7 8 8 8 8 8 9 10 9 8 7 7 8 8 7 8 7 7 8 8 8 7 8 7 7 7 7 7 6 6 7 7 7
8 6 1 3 7 11 5 6 2 5 4 6 4 5 8 2 2 4 1 2 7 7 3 7 8 1 9 3 2 8 4 11 8 10 12 12 11 10 11 10 7 9 8 6 8 7 6 6 7 6 6 6 6 6 8 9 8 8 8 9 10 8 7 7 7 8 8 8 7 7 7 7 7 8 8 7 7 6 6 6 8 8 7 7 8 9
6 4 3 5 4 8 9 11 4 5 7 9 9 8 8 5 5 6 2 0 2 4 3 2 13 6 2 2 2 7 6 9 9 10 11 12 12 10 10 9 8 8 7 7 7 6 6 5 5 4 4 4 5 8 9 9 8 7 7 7 9 7 7 7 8 8 8 8 7 7 7 7 7 7 7 7 7 7 7 7 7 7 7 7 8 8
6 8 13 8 6 7 10 11 10 4 7 8 4 8 7 4 4 5 3 7 7 4 2 3 8 5 7 2 5 3 9 12 10 11 11 11 11 10 10 10 9 9 7 7 7 7 7 5 4 4 4 4 7 8 8 7 7 7 7 8 8 8 7 8 7 7 8 7 8 7 7 8 6 7 7 7 7 7 8 7 8 8 8 8 8 8
14 5 6 8 3 8 10 5 7 6 5 3 6 5 3 12 6 2 5 6 4 4 2 1 1 3 1 2 2 7 12 11 12 12 13 11 8 10 9 9 8 7 7 7 8 7 6 5 5 4 6 6 7 8 8 8 7 8 7 8 8 7 7 7 8 7 7 6 7 8 9 8 8 7 7 7 7 7 7 7 7 8 7 7 7 7
3 7 1 2 8 5 11 7 5 9 6 4 9 11 12 5 3 5 2 1 4 7 0 1 2 2 1 3 8 11 14 12 14 14 12 11 11 11 10 9 8 7 7 6 6 6 6 5 6 6 6 6 7 8 8 7 6 8 8 9 9 8 8 8 7 6 6 6 8 8 8 8 8 8 7 7 7 7 7 7 7 7 7 7 7 7
8 3 3 4 11 10 5 11 8 10 7 6 8 8 3 2 2 3 4 1 2 5 2 1 3 6 5 2 5 10 12 12 13 14 12 12 12 12 10 9 8 8 7 7 5 4 5 5 7 6 6 7 7 7 8 8 6 7 7 8 9 9 9 7 7 7 6 7 8 8 8 8 7 6 6 6 6 6 7 7 6 6 7 8 7 7
2 2 5 7 7 9 4 3 5 8 8 11 8 7 10 4 8 1 3 2 2 1 2 2 5 3 5 4 11 12 14 13 13 12 13 13 12 12 11 9 9 7 7 6 6 6 5 6 7 7 7 7 8 7 7 7 8 9 8 8 8 8 6 5 5 5 6 6 6 6 6 6 6 5 5 5 5 6 7 7 7 7 7 7 7 8
1 2 3 2 9 4 5 6 8 8 1 1 6 10 3 5 3 3 4 4 7 4 3 3 7 5 6 5 16 17 16 15 15 13 13 13 11 11 11 10 9 8 7 7 6 5 7 8 8 7 7 8 8 8 8 9 10 10 9 9 7 7 6 7 7 6 7 6 6 6 6 6 5 5 5 5 5 7 7 7 7 7 7 8 7 8
1 2 1 3 2 6 7 6 10 9 10 6 7 6 3 1 2 5 1 2 6 7 4 4 4 5 4 9 14 16 15 16 16 14 10 11 11 10 11 11 9 8 7 6 7 8 8 7 7 7 8 8 9 9 9 9 10 9 8 8 7 8 7 7 6 7 6 6 6 6 5 5 5 6 6 7 6 5 6 7 7 7 6 6 8 7
1 1 4 3 3 8 7 4 7 11 11 9 8 7 7 8 4 7 6 2 3 7 6 5 7 1 4 3 12 12 11 11 12 14 12 13 11 11 10 10 9 9 6 7 8 10 9 8 7 8 9 9 10 10 10 8 9 9 7 6 6 7 6 6 7 6 6 6 6 5 5 6 5 6 6 7 7 6 5 6 6 5 5 7 7 7
5 2 1 3 4 6 6 5 9 12 8 9 12 8 7 4 7 5 5 3 3 1 3 4 2 4 2 2 8 10 11 12 11 14 12 12 12 11 10 10 8 7 7 8 9 8 8 8 8 9 11 11 10 9 9 7 7 7 6 6 6 7 6 6 6 6 6 6 5 5 5 6 6 6 7 7 7 7 6 5 5 5 5 6 6 6
5 1 0 5 4 6 6 4 1 8 9 2 2 4 7 6 7 8 5 7 7 3 3 0 1 2 3 1 8 12 12 11 11 14 14 12 10 10 11 11 9 8 8 8 7 8 8 8 8 9 11 10 8 8 8 7 6 6 5 5 6 7 6 6 5 6 6 5 5 4 5 6 6 7 7 7 7 8 7 6 6 6 6 5 6 7
3 2 3 2 1 0 2 2 2 2 1 4 5 3 5 5 5 3 6 2 5 8 9 8 6 3 2 4 8 13 14 14 14 12 16 13 10 10 10 9 8 9 10 10 10 9 8 9 9 9 9 9 8 6 7 7 6 6 6 5 6 6 5 5 5 6 5 4 4 4 4 4 5 5 5 5 6 7 7 7 7 6 7 6 7 7
6 3 4 3 3 5 5 8 7 6 10 2 1 5 4 9 7 4 2 2 4 2 4 4 3 3 5 6 11 13 14 13 13 13 12 16 14 12 9 9 9 9 11 11 11 10 10 8 8 9 8 7 7 7 6 6 6 6 6 5 4 6 6 6 5 5 5 4 4 4 4 4 4 4 4 4 5 6 6 7 7 7 7 7 7 7
3 2 4 7 6 6 8 6 5 5 1 3 1 7 2 3 7 5 5 5 7 3 5 1 7 9 11 13 13 15 16 17 16 14 13 10 11 11 11 11 10 10 11 11 11 10 9 9 10 9 7 7 7 6 6 7 7 6 6 6 5 5 5 5 5 4 4 4 4 4 4 4 3 3 4 4 5 5 5 6 6 7 7 7 7 8
3 2 5 5 6 6 6 7 5 7 8 4 6 5 3 6 6 7 6 7 5 11 6 1 10 17 14 14 14 15 14 15 14 13 13 12 11 11 11 11 11 11 10 9 10 11 11 10 10 10 9 8 7 6 6 6 6 6 5 6 5 5 5 5 5 4 4 4 4 5 5 4 4 4 4 4 4 5 5 5 6 6 5 6 7 8
5 4 3 3 1 4 3 7 3 2 3 3 4 4 6 6 8 9 7 4 8 7 9 12 14 14 17 21 22 20 19 17 16 14 13 13 13 12 14 14 13 12 12 12 11 11 11 11 10 10 9 8 8 8 6 6 5 5 5 5 4 5 5 5 5 5 4 4 4 4 4 4 4 4 5 4 4 5 6 6 5 5 5 5 6 6
4 2 3 3 2 4 7 8 2 10 3 6 5 3 2 3 6 8 4 4 6 2 3 18 17 12 15 15 14 13 12 15 13 12 12 13 14 15 14 14 14 13 12 12 12 11 11 11 10 10 9 9 9 8 6 6 5 5 6 5 4 5 4 6 6 5 4 4 4 4 4 5 5 5 4 5 5 5 5 5 5 5 5 6 5 5
5 2 5 3 4 5 7 9 4 7 9 7 4 6 6 3 6 2 5 4 9 9 8 11 9 6 2 8 11 11 12 13 14 14 14 14 14 15 14 13 13 13 12 12 11 10 10 9 9 11 10 10 8 7 7 6 6 6 5 5 4 5 4 6 6 5 4 4 3 4 4 5 5 5 5 4 5 5 5 5 5 5 6 6 6 7
6 1 3 3 5 3 4 5 5 6 9 10 5 6 5 3 5 2 4 4 8 10 12 12 9 4 5 13 12 14 15 17 17 16 14 13 15 15 14 13 13 13 12 12 11 10 10 9 10 10 11 9 8 7 7 7 7 7 5 4 4 4 4 6 5 5 4 3 4 4 4 4 4 5 5 5 5 5 4 4 5 6 6 6 7 7
4 6 3 1 6 3 2 0 4 4 6 3 1 2 2 1 1 1 2 2 3 20 13 10 12 10 17 18 19 17 18 17 17 17 16 15 15 15 15 14 13 12 12 12 11 10 10 10 9 10 10 8 8 8 8 9 9 7 6 5 4 4 5 5 5 4 4 4 4 4 4 4 4 4 4 4 4 4 4 4 5 5 5 6 5 5
5 11 4 1 6 3 5 2 1 1 3 3 1 0 3 2 4 5 3 4 7 4 5 3 8 14 14 16 20 22 23 22 19 15 18 18 14 11 11 11 12 12 11 10 10 10 9 8 8 8 9 8 7 8 7 9 9 7 5 6 4 6 4 5 4 4 4 4 4 4 4 4 4 4 4 3 4 4 4 4 4 4 4 4 5 6
6 8 6 2 6 8 2 0 2 4 6 2 4 3 4 3 8 8 6 5 5 2 6 12 16 19 19 16 16 13 12 12 13 17 13 13 16 17 16 14 13 12 12 11 10 9 8 9 8 8 7 7 7 8 9 8 7 6 5 5 6 4 5 4 4 4 4 4 3 4 4 4 4 4 4 4 4 4 4 4 4 4 4 4 5 5
7 8 6 4 1 2 4 2 4 5 4 4 5 3 5 8 8 10 5 4 3 2 6 11 13 13 13 14 13 12 13 12 9 7 12 12 12 15 16 14 14 13 13 10 11 8 8 8 9 9 7 5 7 8 10 9 7 7 5 4 6 4 4 4 4 4 4 4 4 4 4 4 4 4 4 4 4 4 4 4 3 4 4 4 5 4
12 8 6 4 1 4 4 3 1 3 4 1 1 2 5 5 9 8 7 5 1 2 4 14 15 14 14 13 15 14 13 12 9 4 3 9 12 11 14 13 13 12 11 8 9 8 6 6 8 7 6 6 9 10 9 7 8 8 6 5 4 4 4 4 4 4 4 4 4 4 3 4 4 4 4 4 4 4 4 4 5 5 4 5 4 5
3 8 4 8 1 4 6 4 2 3 3 6 7 4 4 3 5 5 8 1 2 2 3 15 17 17 17 15 16 16 15 14 10 8 6 10 12 15 14 13 11 10 9 7 5 6 6 6 7 6 9 9 9 9 8 8 9 8 7 5 4 4 4 4 4 3 4 4 4 4 3 3 4 4 4 4 4 4 4 4 4 4 3 4 4 5
8 9 6 7 6 4 2 6 4 6 7 7 9 8 7 4 6 4 4 3 3 6 6 14 16 17 21 22 19 18 15 15 14 10 9 14 14 15 16 13 12 10 8 8 9 9 8 8 9 8 9 10 8 6 8 9 10 9 7 5 5 4 5 4 4 3 4 4 4 4 4 3 4 4 4 4 4 4 4 4 3 2 3 3 3 4
7 4 4 7 3 2 5 4 4 3 1 1 4 4 6 5 3 2 2 7 9 11 12 14 19 19 16 16 20 20 20 17 15 12 12 15 16 15 15 15 13 11 9 9 9 10 9 9 10 9 10 10 8 6 8 9 9 8 7 5 4 5 5 4 4 3 1 2 3 4 3 3 4 3 4 4 4 4 4 2 3 4 3 3 4 4
3 3 5 7 6 3 5 1 2 3 4 2 4 5 4 5 3 3 9 4 12 15 16 15 16 17 17 18 16 16 3 4 8 16 16 16 16 14 13 11 11 11 11 11 10 9 9 10 11 11 10 8 7 6 7 9 9 7 6 5 5 5 5 5 4 3 3 3 3 4 3 3 4 4 3 3 4 3 3 3 3 3 4 4 5 4
1 3 0 4 4 4 3 4 4 2 5 3 0 7 5 4 5 9 5 2 16 15 15 16 17 16 17 17 9 3 5 16 17 14 16 17 17 15 15 14 12 11 9 9 9 9 9 9 9 8 7 5 7 7 7 9 9 7 6 5 5 5 2 3 4 4 3 4 4 4 3 3 2 3 3 2 3 4 3 2 2 3 3 3 4 5
5 4 3 4 2 3 2 3 2 1 1 6 8 3 1 3 4 3 2 4 15 17 17 15 14 14 16 12 7 11 15 19 18 15 14 15 17 16 15 15 16 15 13 11 9 9 12 10 10 9 8 5 6 6 7 10 8 6 5 7 5 2 2 4 4 4 4 4 4 4 3 2 2 2 2 2 2 4 3 2 3 3 3 4 4 5
1 2 0 1 3 5 3 3 3 3 1 4 10 9 5 3 2 4 6 9 5 11 12 13 11 13 11 12 14 16 18 18 15 15 14 14 15 14 13 12 13 12 10 9 10 10 12 10 8 8 6 6 6 6 7 10 7 6 6 5 3 2 2 2 4 5 5 4 4 4 3 2 2 2 1 2 2 3 3 3 2 2 3 3 4 5
2 1 4 5 3 3 5 5 3 1 3 3 2 2 1 1 2 6 6 14 13 7 7 11 14 11 11 14 16 18 17 18 17 16 17 15 15 15 14 14 15 14 13 12 11 10 10 11 9 8 7 7 6 5 7 8 9 6 6 3 2 5 5 5 5 6 5 4 4 4 3 2 3 2 1 0 1 3 2 2 2 4 3 4 4 4
2 1 1 5 0 1 1 1 1 1 2 2 3 2 0 2 2 4 9 9 8 13 13 14 12 13 13 15 18 14 16 16 17 14 14 14 14 13 13 13 12 11 12 11 10 10 10 10 10 10 8 5 6 6 6 6 8 8 5 4 4 5 6 7 7 6 5 4 3 2 2 4 3 3 2 2 1 2 1 1 1 2 3 4 4 4
1 0 2 2 1 3 2 1 2 0 1 2 3 4 4 3 2 2 5 8 8 7 9 9 13 13 13 15 17 16 17 17 16 14 14 13 14 14 14 14 13 13 13 13 11 10 10 10 10 9 8 7 5 6 5 5 6 7 6 5 5 5 6 7 7 5 4 4 3 2 1 2 3 3 2 2 2 2 1 0 0 1 1 2 4 4
1 2 5 1 3 2 1 0 0 1 1 1 0 3 4 4 5 4 4 5 8 7 10 13 13 13 12 13 16 19 17 16 18 16 14 12 12 12 12 13 13 12 11 11 11 12 10 10 9 9 8 8 6 6 6 6 7 6 6 5 5 5 7 6 5 5 4 4 3 3 2 2 1 1 2 1 0 1 1 1 0 0 1 1 2 3
1 2 2 2 3 0 0 0 1 2 3 3 2 1 1 5 8 8 9 10 12 14 12 11 11 13 12 14 16 18 18 15 16 17 15 13 12 12 13 13 13 12 11 12 11 11 10 9 9 8 8 7 5 7 7 6 5 5 6 5 5 7 8 6 5 5 4 2 3 3 1 2 1 1 2 1 0 0 1 1 2 2 4 3 3 2
3 2 2 4 4 1 7 7 8 6 4 2 0 2 4 4 9 10 10 11 13 15 14 14 10 10 13 15 16 17 18 15 15 15 16 14 14 13 13 14 12 13 12 10 9 10 9 8 9 8 8 6 5 7 7 6 5 4 5 5 5 7 8 5 5 5 5 4 4 2 3 3 3 2 1 1 0 1 1 5 6 4 3 5 3 5
1 4 5 7 8 6 3 4 2 4 3 1 6 4 4 5 10 12 11 12 12 13 14 16 15 13 13 13 14 17 17 17 16 14 15 13 12 12 14 15 14 13 11 10 11 10 10 8 8 8 8 6 5 7 7 6 5 4 4 5 5 6 6 6 6 5 5 4 4 3 2 3 3 2 2 0 1 0 1 5 4 5 9 8 6 4
Wind_Direction
131 170 189 200 202 188 167 171 172 186 159 141 113 112 181 187 290 274 250 141 129 90 5 344 80 100 131 135 75 75 354 191 138 125 123 117 120 117 111 104 97 88 91 92 97 95 92 86 81 83 79 79 73 66 64 63 57 57 62 67 59 36 61 44 353 39 119 108 55 344 290 260 294 327 1 320 306 298 284 293 295 304 309 320 354 84
126 190 220 198 173 158 174 167 178 163 171 156 146 148 288 164 238 257 24 265 323 106 338 5 83 66 68 72 67 71 24 342 16 156 110 108 109 110 107 102 98 104 97 87 81 82 82 76 75 72 69 65 67 58 62 61 60 62 57 58 48 30 44 35 24 6 35 136 181 180 206 203 311 16 19 336 341 325 316 320 320 325 328 346 7 9
196 209 195 180 173 151 147 163 179 173 179 160 175 167 116 275 230 288 350 28 29 87 152 91 93 72 64 77 54 97 118 277 309 175 112 115 113 109 101 107 113 110 97 82 78 81 81 77 72 74 71 69 71 69 68 69 66 59 54 48 46 41 44 33 20 23 2 326 354 42 51 56 24 44 55 7 319 331 336 327 328 324 333 347 10 65
197 243 214 174 133 138 163 168 176 188 165 146 105 132 202 241 125 332 343 4 358 131 150 138 99 99 86 81 111 87 114 183 270 105 100 112 113 109 111 115 121 110 98 89 80 75 75 74 73 72 66 67 70 66 59 57 62 60 59 50 49 52 52 36 22 18 4 22 48 50 67 51 61 33 8 14 3 356 346 345 337 333 337 344 344 356
189 247 166 157 149 150 167 192 174 176 216 190 166 165 166 172 183 148 287 62 67 48 118 112 84 86 113 130 122 108 90 129 334 86 84 92 93 98 100 99 99 98 99 97 85 76 74 70 67 71 74 73 68 62 61 58 61 60 62 51 44 52 58 48 32 21 9 32 39 38 45 43 30 26 28 30 20 14 15 17 10 353 343 347 346 349
249 271 150 148 174 169 161 193 201 155 199 240 230 193 171 153 98 94 128 93 22 62 264 138 91 271 87 106 143 138 124 122 174 105 81 114 109 109 108 108 90 81 87 94 86 83 79 83 79 73 75 72 70 65 62 66 66 65 59 58 55 47 48 50 37 26 29 43 50 47 44 34 33 40 31 29 12 3 16 12 358 14 8 356 352 354
189 226 163 173 165 180 187 203 193 160 183 166 258 167 151 149 129 127 119 83 93 161 225 261 161 206 81 176 163 146 150 146 144 118 90 45 112 111 115 102 90 100 101 91 87 80 79 81 83 72 70 76 75 70 69 60 60 59 65 60 63 61 49 40 41 36 39 36 54 56 62 62 59 65 47 17 22 13 5 6 19 13 14 14 11 4
161 191 176 173 170 177 190 208 204 163 138 215 238 153 148 133 149 170 146 126 192 275 296 86 199 147 152 187 182 139 153 148 153 142 132 157 111 107 98 95 102 102 96 99 93 87 80 78 82 83 72 67 68 67 64 65 60 56 53 53 52 55 53 35 37 34 32 46 38 56 55 57 54 47 34 19 21 16 14 22 15 10 11 10 19 13
166 190 177 188 180 183 207 192 131 157 156 200 178 138 160 160 192 176 148 151 178 138 224 263 112 101 187 139 137 146 141 137 161 162 144 135 113 106 103 105 103 98 92 99 99 88 83 89 79 79 76 73 68 63 62 61 60 62 60 61 59 52 44 34 32 38 31 39 52 54 46 55 46 42 36 28 26 28 16 33 17 13 4 4 11 13
221 192 185 176 175 207 158 150 162 162 169 244 152 138 150 163 180 171 168 135 170 145 225 215 206 158 257 152 143 135 131 161 180 159 147 138 125 126 123 110 101 96 92 88 94 92 83 88 92 86 88 78 71 64 65 59 55 50 51 52 50 41 36 32 31 36 39 36 44 52 41 49 42 35 32 33 32 22 13 22 15 11 10 2 2 5
214 165 163 178 203 177 149 197 151 167 159 154 110 53 41 96 155 64 92 120 71 216 224 195 199 120 222 205 189 160 200 175 150 147 145 134 125 126 115 108 111 104 102 104 94 89 88 86 91 90 81 80 67 62 62 60 57 49 49 53 52 41 37 33 34 34 37 37 44 51 49 50 44 36 40 39 32 20 20 16 9 10 4 3 6 6
281 189 169 219 124 145 147 204 153 159 170 131 123 158 4 308 24 57 13 97 163 244 246 183 178 114 213 235 191 214 122 156 159 151 142 133 125 125 113 113 112 104 100 95 91 94 95 86 76 74 78 73 69 58 53 55 51 48 49 57 58 43 38 34 37 41 35 36 34 38 38 40 33 33 35 35 27 18 19 13 13 4 9 11 12 10
249 238 252 115 161 147 162 171 211 144 158 153 115 126 158 249 111 251 76 223 210 203 271 166 134 51 239 219 267 147 120 137 149 141 135 128 124 125 121 117 110 108 103 90 92 96 91 88 92 93 89 77 58 54 58 56 57 58 60 65 65 48 37 38 39 46 40 39 35 33 36 34 33 36 37 32 30 15 21 19 20 16 15 7 11 13
254 316 274 207 159 187 153 180 154 165 202 161 169 169 157 171 179 204 250 191 311 279 329 154 165 203 353 292 257 161 144 118 109 114 118 123 124 121 117 112 105 100 104 104 106 109 103 98 98 94 99 98 78 66 63 61 59 65 72 69 70 54 41 42 43 40 43 37 35 39 41 38 36 39 37 36 34 26 31 30 29 25 18 16 15 8
164 227 241 179 219 163 183 192 173 159 163 192 125 155 179 146 163 195 186 185 204 202 292 311 143 247 144 249 336 166 132 119 111 111 112 111 116 113 105 101 101 108 111 113 110 108 106 101 96 96 81 73 78 74 72 67 65 75 77 74 70 60 40 47 43 42 42 35 34 37 38 36 38 40 39 37 36 34 34 30 32 26 22 22 13 12
207 225 264 196 219 167 190 176 140 123 128 191 150 108 127 224 133 138 200 152 162 123 68 354 195 359 5 339 77 118 119 112 111 117 119 119 110 113 106 112 115 117 119 119 118 116 114 115 96 77 84 79 76 77 77 76 83 84 82 78 70 65 57 51 48 43 40 36 40 38 39 36 40 41 41 40 37 38 37 37 32 26 24 20 17 12
133 229 276 175 210 182 187 150 185 149 192 216 135 196 214 118 104 83 68 128 101 75 300 144 131 156 101 41 113 132 123 123 122 128 125 121 120 114 114 117 122 126 122 120 123 118 115 100 80 82 88 89 81 80 82 83 87 91 86 81 75 68 60 54 50 48 41 43 44 39 41 38 40 41 40 40 41 40 39 39 33 29 24 23 20 15
157 235 272 127 209 225 192 178 171 185 143 128 182 214 63 84 105 156 206 11 54 158 178 153 207 177 167 208 165 130 126 132 134 138 130 125 127 123 126 126 133 137 134 134 127 122 112 86 95 100 89 88 91 90 84 80 74 73 77 80 82 72 67 55 54 46 43 44 46 41 39 37 39 38 37 37 38 38 43 37 34 29 31 25 19 16
138 312 244 195 188 208 162 148 207 203 163 179 187 167 159 201 234 302 109 178 156 157 205 263 200 223 216 180 152 156 150 151 144 141 138 142 138 130 131 130 135 137 133 136 139 121 98 110 113 108 102 92 82 69 73 76 83 84 80 77 78 76 69 67 59 59 47 45 49 46 41 39 33 30 30 29 33 39 44 40 33 35 32 27 22 18
67 167 298 216 182 187 161 141 213 207 299 37 117 166 175 142 187 132 206 167 108 175 141 251 172 236 194 188 171 169 165 155 145 152 150 143 140 134 132 136 138 140 143 140 121 106 116 118 117 112 104 89 77 75 74 83 86 85 84 83 80 72 68 61 56 54 53 42 48 45 40 33 32 29 30 28 33 43 42 37 36 32 32 29 25 23
284 122 214 291 235 135 207 190 207 169 178 174 160 178 192 118 218 103 56 115 156 158 183 144 207 236 228 171 186 175 167 158 150 144 135 136 139 132 138 142 143 142 137 127 121 122 121 118 109 94 87 84 83 81 82 86 88 89 85 82 77 82 73 67 60 60 56 52 46 48 40 29 25 24 23 26 26 38 42 39 35 33 31 26 32 25
116 92 193 309 128 200 222 240 162 178 174 173 161 182 169 120 123 169 236 39 89 117 171 153 234 273 261 194 186 166 155 134 139 136 131 135 131 136 140 141 139 131 129 133 134 132 127 116 106 96 89 87 88 88 90 90 89 88 86 87 88 79 73 76 63 64 63 60 57 52 42 36 32 28 21 25 18 24 28 37 32 28 25 34 26 29
149 165 104 256 209 219 220 226 188 172 168 164 167 207 168 142 118 120 172 225 48 41 102 144 121 277 259 320 143 145 143 145 130 126 128 131 135 142 139 131 122 120 127 131 128 122 121 120 112 102 96 95 97 100 99 93 92 94 93 88 85 85 77 75 75 69 70 68 63 55 48 46 41 31 30 29 24 25 22 22 26 22 25 30 28 23
135 232 262 294 291 283 281 317 341 179 137 115 231 93 137 170 175 164 168 181 137 150 92 33 171 249 292 120 133 126 131 129 132 131 128 133 140 142 136 133 129 121 117 110 110 116 121 119 111 101 101 101 102 104 102 102 100 95 90 92 88 84 80 73 71 70 69 68 63 54 53 51 43 44 38 39 30 33 27 24 19 18 22 22 29 24
147 273 122 325 3 356 342 6 74 335 184 161 176 201 164 136 105 142 111 62 118 207 161 131 213 248 229 144 121 127 132 138 140 141 135 137 144 143 137 121 120 126 122 124 124 124 123 113 103 104 107 109 108 103 105 104 103 98 93 90 90 85 79 74 67 68 62 63 61 51 57 51 47 50 43 40 35 35 32 27 23 20 23 20 28 23
165 201 132 195 184 169 201 190 199 195 205 236 151 134 159 140 138 114 163 145 180 242 127 157 182 263 126 133 129 135 138 138 144 144 146 145 150 147 131 124 129 129 130 130 128 124 119 111 108 111 113 114 114 115 110 107 103 102 99 91 92 89 78 67 64 59 59 52 58 52 51 47 45 44 42 40 36 34 34 31 29 24 24 24 25 21
158 139 144 174 174 196 209 221 248 128 63 143 222 131 191 127 151 115 116 118 194 192 168 231 161 142 146 154 153 158 156 154 154 154 152 145 141 134 129 133 133 132 133 131 128 123 118 113 115 119 121 120 119 115 116 113 108 105 102 93 85 83 80 73 67 56 56 48 57 59 50 45 41 42 43 39 37 35 33 35 30 30 31 26 27 25
103 165 204 162 213 234 222 218 207 183 167 190 130 170 165 143 146 128 145 217 163 109 225 33 169 138 176 166 165 161 157 152 153 152 147 141 136 131 131 130 126 125 127 127 129 128 124 123 124 125 125 120 113 111 109 107 109 110 109 103 89 80 78 70 71 63 59 57 56 55 51 50 49 49 46 41 40 39 37 34 31 29 27 28 29 28
147 179 242 134 329 336 344 301 238 78 94 137 123 143 164 171 152 163 193 175 145 169 198 177 180 160 174 180 177 172 164 157 151 148 143 138 133 134 136 135 134 134 136 135 135 132 130 129 132 128 124 123 119 115 113 106 99 95 88 87 84 79 76 78 81 77 73 66 63 54 52 50 52 53 51 48 45 43 38 35 31 27 24 25 27 22
128 178 179 110 123 348 343 348 297 119 107 55 43 31 33 171 195 151 119 164 161 168 191 164 178 180 178 173 160 152 142 138 137 137 141 141 142 140 141 141 140 143 142 141 140 137 134 134 134 126 126 126 125 122 116 109 106 107 105 94 85 81 77 85 85 90 82 76 68 56 51 56 56 56 56 50 47 44 41 36 31 28 25 23 17 12
153 247 144 115 57 327 336 355 359 122 124 97 50 42 43 85 78 44 106 118 89 57 103 129 129 106 45 126 126 122 127 130 138 150 148 145 144 146 144 146 145 143 144 140 138 136 134 133 129 124 126 129 130 128 121 117 114 108 100 99 96 93 86 89 91 88 95 87 77 70 57 57 56 57 57 50 48 43 41 35 30 29 26 21 14 10
165 213 33 93 76 318 329 9 330 84 92 107 67 26 22 68 119 174 131 208 125 136 127 123 118 148 153 132 128 133 141 148 151 151 150 151 151 150 149 149 148 147 145 142 138 135 133 130 126 123 126 129 130 126 121 119 119 115 117 114 109 104 91 88 93 99 93 92 78 69 67 62 59 57 50 49 43 40 37 34 32 29 23 18 13 6
139 129 144 115 101 254 270 7 285 339 84 62 347 290 252 246 256 92 336 37 171 138 125 145 208 174 155 148 145 155 155 154 153 159 153 153 158 157 154 152 146 145 143 141 139 137 135 132 130 127 123 124 132 130 129 126 125 129 134 125 129 106 92 95 101 99 88 80 79 73 71 65 63 56 50 41 37 33 35 35 33 28 21 16 3 4
148 138 156 64 151 207 217 283 315 39 158 219 320 193 199 178 172 135 153 140 127 103 179 175 139 131 145 151 156 161 166 171 162 158 155 154 153 150 149 144 142 140 139 138 137 137 130 125 126 130 131 132 129 121 129 131 133 139 137 128 121 107 107 105 94 95 94 83 79 76 72 71 66 56 41 31 32 32 31 31 24 15 14 14 9 13
129 119 127 128 125 186 218 27 95 198 230 267 305 275 210 164 108 94 66 32 350 356 112 120 140 156 166 162 156 151 138 133 145 152 163 160 154 151 149 145 144 144 143 143 139 135 133 132 129 126 117 116 118 120 115 119 125 129 123 125 117 116 114 109 106 99 105 98 83 76 70 69 66 62 47 36 33 30 25 17 7 13 7 19 12 10
135 118 148 52 72 50 59 55 184 237 299 341 352 4 128 106 115 96 42 348 4 324 142 129 142 142 140 137 135 133 134 130 123 136 152 152 150 146 144 147 147 145 145 151 144 142 139 138 138 133 129 127 116 119 125 134 137 127 133 125 125 127 123 123 117 121 113 101 96 90 82 81 72 62 55 51 42 39 22 13 8 9 350 9 360 358
135 116 112 90 337 143 142 87 232 332 331 332 346 224 187 158 173 156 157 230 289 292 152 137 138 138 132 132 131 131 127 117 112 68 106 135 134 134 133 133 140 142 141 144 143 150 145 137 126 129 122 123 122 120 124 133 130 128 127 124 134 130 135 126 130 137 123 118 115 107 99 95 88 76 68 60 57 43 31 24 13 14 11 19 359 355
321 133 204 116 277 122 129 98 32 17 265 251 225 243 220 220 142 163 104 281 271 268 182 143 147 143 137 134 135 134 131 125 148 173 163 136 135 132 131 135 136 134 131 128 113 112 120 118 116 126 126 122 119 125 130 133 131 133 134 140 149 138 145 135 150 160 135 130 127 127 121 116 106 97 81 71 69 59 40 28 26 32 17 37 2 358
37 79 100 112 145 87 83 133 190 164 240 209 202 205 196 187 157 157 73 240 228 173 171 151 146 153 151 149 145 144 147 164 179 170 165 143 141 139 138 139 134 128 126 129 130 127 129 134 133 131 120 118 120 136 135 132 133 133 140 151 165 156 147 159 174 177 150 145 141 138 140 133 115 110 99 84 68 62 51 38 39 2 21 20 9 354
41 12 50 68 93 152 142 121 200 198 200 282 195 178 187 159 134 60 57 264 182 174 165 163 156 156 159 158 155 159 166 169 178 176 159 146 143 142 141 142 134 129 130 130 131 135 136 133 120 120 121 125 138 148 133 126 126 131 139 161 160 153 165 179 190 200 170 123 134 141 146 142 119 109 101 94 76 60 48 28 34 20 19 8 8 355
1 1 51 152 153 155 119 239 341 308 278 273 178 155 156 160 104 151 200 243 177 165 167 168 164 158 155 159 170 173 202 20 124 138 149 142 137 140 136 129 125 130 136 137 141 138 132 133 129 132 134 134 138 138 126 117 115 125 143 154 157 174 191 190 198 198 173 122 115 124 136 142 127 113 97 100 100 85 55 36 48 24 27 9 358 3
55 96 6 79 98 150 194 129 208 231 238 167 18 151 171 121 188 215 233 200 151 164 162 164 163 164 163 166 156 79 116 115 122 135 140 143 140 142 139 132 125 125 131 134 139 130 124 124 123 121 115 127 134 132 122 116 116 130 136 133 158 200 207 166 184 176 144 116 109 121 139 143 134 115 112 92 84 78 54 13 41 42 24 8 8 6
198 114 179 150 170 71 44 70 30 167 235 140 120 54 302 151 232 207 119 133 162 156 158 160 166 164 161 149 123 127 121 126 135 142 142 141 141 143 139 136 137 142 144 140 137 134 128 127 130 134 140 145 131 123 121 115 118 127 125 128 169 192 180 178 155 148 128 109 107 121 143 154 132 114 107 94 97 97 71 18 33 18 24 19 8 9
214 84 195 270 185 138 134 146 195 217 229 214 155 178 199 190 173 149 136 129 149 157 156 154 161 163 156 137 137 132 133 130 135 141 140 140 139 138 133 130 130 132 134 138 138 138 128 126 129 132 138 137 130 127 126 118 122 126 124 148 167 160 188 137 119 118 112 110 118 121 131 130 101 82 73 122 106 90 79 33 15 31 23 11 19 7
230 157 180 168 203 130 192 209 243 255 232 269 23 262 213 174 164 166 142 150 149 170 155 152 155 146 142 139 134 135 136 142 144 147 144 147 141 138 138 141 142 144 145 144 141 134 126 131 135 132 132 135 135 135 124 123 122 120 120 157 161 173 128 108 99 95 94 102 118 128 136 107 101 99 103 27 112 103 87 43 30 27 351 16 11 8
324 252 147 89 248 249 273 208 258 351 6 0 16 33 29 103 105 120 138 142 177 158 162 159 149 142 144 142 134 137 138 141 139 143 142 142 140 138 134 133 135 139 141 138 135 133 131 130 129 129 132 138 138 129 127 129 124 122 147 169 158 120 110 103 94 89 98 107 104 124 156 121 89 81 75 70 59 94 102 111 69 44 353 16 3 358
272 144 61 96 216 120 266 332 45 332 1 54 91 49 47 54 67 121 145 146 140 137 128 130 138 142 145 144 137 137 138 141 138 141 142 141 140 141 141 142 145 148 148 144 144 133 130 131 132 135 135 134 140 131 137 131 121 132 150 147 130 116 104 96 98 101 100 98 102 81 77 97 118 102 69 55 60 54 56 39 52 52 350 2 5 353
270 156 70 56 84 128 227 282 317 7 59 27 20 119 111 99 87 64 93 106 110 107 121 129 130 132 139 137 138 136 139 143 142 146 145 143 140 138 137 140 143 145 146 142 142 136 134 135 139 140 135 138 149 138 134 127 130 141 144 140 134 118 100 96 103 106 100 95 94 87 83 103 80 104 100 33 59 95 31 353 353 28 291 316 327 348
175 98 188 155 98 291 320 63 140 76 24 15 29 46 106 134 121 113 115 116 116 118 123 126 135 141 139 138 138 137 138 147 147 146 143 141 138 139 145 145 147 147 143 143 146 138 140 142 141 144 138 149 155 140 135 138 144 150 147 146 137 113 104 110 115 116 120 136 100 74 83 95 109 150 136 115 343 270 215 224 246 256 290 249 183 177
84 114 165 89 79 234 200 194 178 132 226 202 11 159 139 130 118 119 119 122 128 130 134 132 132 134 135 140 142 141 141 146 150 146 143 145 146 150 147 145 147 145 148 146 140 134 134 138 140 141 140 152 154 140 138 145 155 163 146 132 127 116 115 122 111 103 107 111 101 109 82 67 57 65 125 174 238 338 322 248 227 207 220 282 253 223
147 193 147 174 176 223 225 177 151 93 76 111 162 152 134 140 130 133 141 138 137 137 137 135 135 135 140 146 147 145 145 148 149 144 143 150 153 153 150 147 149 150 149 143 134 135 135 139 135 130 133 148 153 141 140 146 155 161 158 136 134 119 123 122 112 114 125 112 114 126 123 90 60 41 62 118 157 153 336 332 310 240 226 239 269 262